When you browse on this site, cookies collect data to enhance your experience and personalize the content and advertising you see.
Visit our Privacy Policy to learn more. By continuing to use the site, you agree to this use of cookies and data.
  • în România
  • Lista ţărilor
  • Pe 7 zile
  • Temperatura apei
  • Meteo pe hartă
  • Widget-uri
  • user-avatar
    Intrare

    Meteo pe oră la Bacău

    Astăzi, 26 Mai, Marţi

    Timp Temperatura Precipitaţii Vânt Presiune Umiditate
    00:00 +9°C° 0 mm 2 m/s 750 mmHg 87%
    01:00 +9°C° 0 mm 2 m/s 750 mmHg 88%
    02:00 +8°C° 0 mm 2 m/s 750 mmHg 88%
    03:00 +8°C° 0 mm 2 m/s 750 mmHg 88%
    04:00 +8°C° 0 mm 2 m/s 750 mmHg 88%
    05:00 +8°C° 0 mm 2 m/s 750 mmHg 89%
    06:00 +9°C° 0 mm 3 m/s 751 mmHg 85%
    07:00 +11°C° 0 mm 3 m/s 751 mmHg 81%
    08:00 +12°C° 0 mm 4 m/s 751 mmHg 78%
    09:00 +13°C° 0.2 mm 4 m/s 750 mmHg 73%
    10:00 +15°C° 0.2 mm 5 m/s 750 mmHg 68%
    11:00 +16°C° 0.2 mm 5 m/s 750 mmHg 63%
    12:00 +16°C° 0.3 mm 6 m/s 750 mmHg 65%
    13:00 +16°C° 0.3 mm 6 m/s 749 mmHg 66%
    14:00 +16°C° 0.3 mm 6 m/s 749 mmHg 67%
    15:00 +16°C° 0.3 mm 6 m/s 749 mmHg 68%
    16:00 +16°C° 0.3 mm 6 m/s 749 mmHg 68%
    17:00 +16°C° 0.3 mm 6 m/s 749 mmHg 69%
    18:00 +14°C° 0.1 mm 5 m/s 749 mmHg 75%
    19:00 +13°C° 0.1 mm 5 m/s 749 mmHg 81%
    20:00 +11°C° 0.1 mm 4 m/s 749 mmHg 86%
    21:00 +11°C° 0 mm 4 m/s 749 mmHg 88%
    22:00 +11°C° 0 mm 4 m/s 750 mmHg 89%
    23:00 +10°C° 0 mm 4 m/s 750 mmHg 90%

    Mâine, 27 Mai, Miercuri

    Timp Temperatura Precipitaţii Vânt Presiune Umiditate
    00:00 +10°C° 0.1 mm 4 m/s 750 mmHg 91%
    01:00 +10°C° 0.1 mm 4 m/s 750 mmHg 92%
    02:00 +10°C° 0.1 mm 4 m/s 750 mmHg 93%
    03:00 +10°C° 0.5 mm 4 m/s 750 mmHg 93%
    04:00 +10°C° 0.5 mm 3 m/s 750 mmHg 94%
    05:00 +10°C° 0.5 mm 3 m/s 750 mmHg 95%
    06:00 +10°C° 0.4 mm 3 m/s 750 mmHg 93%
    07:00 +11°C° 0.4 mm 3 m/s 750 mmHg 92%
    08:00 +11°C° 0.4 mm 3 m/s 751 mmHg 90%
    09:00 +12°C° 0.3 mm 3 m/s 751 mmHg 86%
    10:00 +13°C° 0.3 mm 3 m/s 751 mmHg 82%
    11:00 +14°C° 0.3 mm 3 m/s 751 mmHg 78%
    12:00 +15°C° 0.4 mm 4 m/s 750 mmHg 75%
    13:00 +17°C° 0.4 mm 4 m/s 750 mmHg 72%
    14:00 +17°C° 0.4 mm 5 m/s 750 mmHg 69%
    15:00 +16°C° 0.6 mm 5 m/s 749 mmHg 71%
    16:00 +16°C° 0.6 mm 5 m/s 749 mmHg 74%
    17:00 +16°C° 0.6 mm 5 m/s 749 mmHg 76%
    18:00 +14°C° 0.2 mm 4 m/s 749 mmHg 81%
    19:00 +13°C° 0.2 mm 4 m/s 749 mmHg 86%
    20:00 +12°C° 0.2 mm 3 m/s 749 mmHg 91%
    21:00 +11°C° 0 mm 3 m/s 750 mmHg 91%
    22:00 +10°C° 0 mm 3 m/s 750 mmHg 92%
    23:00 +10°C° 0 mm 2 m/s 750 mmHg 92%

    Poimâine, 28 Mai, Joi

    Timp Temperatura Precipitaţii Vânt Presiune Umiditate
    00:00 +9°C° 0 mm 2 m/s 750 mmHg 92%
    01:00 +9°C° 0 mm 2 m/s 749 mmHg 92%
    02:00 +9°C° 0 mm 2 m/s 749 mmHg 92%
    03:00 +9°C° 0 mm 2 m/s 749 mmHg 92%
    04:00 +9°C° 0 mm 2 m/s 749 mmHg 92%
    05:00 +9°C° 0 mm 2 m/s 749 mmHg 92%
    06:00 +11°C° 0 mm 3 m/s 749 mmHg 87%
    07:00 +13°C° 0 mm 4 m/s 749 mmHg 81%
    08:00 +14°C° 0 mm 5 m/s 749 mmHg 76%
    09:00 +15°C° 0.6 mm 5 m/s 748 mmHg 74%
    10:00 +16°C° 0.6 mm 5 m/s 748 mmHg 72%
    11:00 +17°C° 0.6 mm 6 m/s 748 mmHg 70%
    12:00 +17°C° 0.6 mm 5 m/s 747 mmHg 68%
    13:00 +19°C° 0.6 mm 5 m/s 747 mmHg 66%
    14:00 +19°C° 0.6 mm 5 m/s 746 mmHg 65%
    15:00 +19°C° 0.1 mm 5 m/s 746 mmHg 64%
    16:00 +19°C° 0.1 mm 5 m/s 746 mmHg 64%
    17:00 +19°C° 0.1 mm 4 m/s 746 mmHg 64%
    18:00 +17°C° 0.4 mm 4 m/s 746 mmHg 70%
    19:00 +15°C° 0.4 mm 4 m/s 746 mmHg 77%
    20:00 +13°C° 0.4 mm 3 m/s 746 mmHg 84%
    21:00 +12°C° 0 mm 3 m/s 746 mmHg 85%
    22:00 +12°C° 0 mm 3 m/s 746 mmHg 85%
    23:00 +11°C° 0 mm 3 m/s 746 mmHg 86%

    29 Mai, Vineri

    Timp Temperatura Precipitaţii Vânt Presiune Umiditate
    00:00 +11°C° 0 mm 3 m/s 746 mmHg 86%
    01:00 +11°C° 0 mm 3 m/s 746 mmHg 86%
    02:00 +10°C° 0 mm 3 m/s 746 mmHg 86%
    03:00 +10°C° 0 mm 3 m/s 746 mmHg 86%
    04:00 +10°C° 0 mm 2 m/s 746 mmHg 86%
    05:00 +9°C° 0 mm 2 m/s 746 mmHg 86%
    06:00 +11°C° 0 mm 3 m/s 746 mmHg 81%
    07:00 +13°C° 0 mm 4 m/s 746 mmHg 76%
    08:00 +15°C° 0 mm 5 m/s 746 mmHg 72%
    09:00 +16°C° 0.2 mm 5 m/s 746 mmHg 69%
    10:00 +17°C° 0.2 mm 5 m/s 746 mmHg 67%
    11:00 +19°C° 0.2 mm 5 m/s 746 mmHg 65%
    12:00 +19°C° 0.5 mm 5 m/s 746 mmHg 65%
    13:00 +19°C° 0.5 mm 5 m/s 745 mmHg 64%
    14:00 +20°C° 0.5 mm 4 m/s 745 mmHg 63%
    15:00 +19°C° 0.5 mm 4 m/s 745 mmHg 67%
    16:00 +19°C° 0.5 mm 5 m/s 745 mmHg 70%
    17:00 +17°C° 0.5 mm 5 m/s 745 mmHg 73%
    18:00 +17°C° 0.2 mm 4 m/s 745 mmHg 78%
    19:00 +14°C° 0.2 mm 4 m/s 745 mmHg 83%
    20:00 +13°C° 0.2 mm 4 m/s 745 mmHg 88%
    21:00 +12°C° 0 mm 4 m/s 745 mmHg 89%
    22:00 +11°C° 0 mm 3 m/s 746 mmHg 90%
    23:00 +11°C° 0 mm 3 m/s 746 mmHg 91%

    30 Mai, Sâmbătă

    Timp Temperatura Precipitaţii Vânt Presiune Umiditate
    00:00 +10°C° 0 mm 3 m/s 746 mmHg 91%
    01:00 +10°C° 0 mm 3 m/s 746 mmHg 90%
    02:00 +10°C° 0 mm 3 m/s 745 mmHg 90%
    03:00 +10°C° 0 mm 3 m/s 746 mmHg 90%
    04:00 +10°C° 0 mm 3 m/s 746 mmHg 90%
    05:00 +10°C° 0 mm 3 m/s 746 mmHg 90%
    06:00 +11°C° 0 mm 4 m/s 746 mmHg 87%
    07:00 +13°C° 0 mm 5 m/s 746 mmHg 83%
    08:00 +14°C° 0 mm 6 m/s 746 mmHg 80%
    09:00 +15°C° 0.2 mm 6 m/s 746 mmHg 77%
    10:00 +16°C° 0.2 mm 6 m/s 746 mmHg 75%
    11:00 +17°C° 0.2 mm 6 m/s 746 mmHg 72%
    12:00 +17°C° 0.6 mm 5 m/s 746 mmHg 72%
    13:00 +19°C° 0.6 mm 5 m/s 745 mmHg 72%
    14:00 +19°C° 0.6 mm 5 m/s 745 mmHg 71%
    15:00 +19°C° 0.7 mm 5 m/s 745 mmHg 73%
    16:00 +19°C° 0.7 mm 5 m/s 745 mmHg 75%
    17:00 +17°C° 0.7 mm 5 m/s 745 mmHg 76%
    18:00 +16°C° 0.2 mm 5 m/s 745 mmHg 80%
    19:00 +15°C° 0.2 mm 4 m/s 745 mmHg 84%
    20:00 +13°C° 0.2 mm 4 m/s 745 mmHg 88%
    21:00 +13°C° 0 mm 3 m/s 745 mmHg 89%
    22:00 +12°C° 0 mm 3 m/s 745 mmHg 90%
    23:00 +11°C° 0 mm 3 m/s 745 mmHg 91%

    31 Mai, Duminică

    Timp Temperatura Precipitaţii Vânt Presiune Umiditate
    00:00 +11°C° 0 mm 3 m/s 745 mmHg 91%
    01:00 +11°C° 0 mm 3 m/s 745 mmHg 91%
    02:00 +10°C° 0 mm 3 m/s 745 mmHg 92%
    03:00 +10°C° 0 mm 3 m/s 745 mmHg 91%
    04:00 +10°C° 0 mm 2 m/s 745 mmHg 91%
    05:00 +10°C° 0 mm 2 m/s 745 mmHg 91%
    06:00 +12°C° 0 mm 3 m/s 745 mmHg 85%
    07:00 +14°C° 0 mm 4 m/s 745 mmHg 80%
    08:00 +16°C° 0 mm 6 m/s 745 mmHg 75%
    09:00 +17°C° 0.2 mm 6 m/s 745 mmHg 72%
    10:00 +19°C° 0.2 mm 6 m/s 745 mmHg 70%
    11:00 +20°C° 0.2 mm 6 m/s 745 mmHg 67%
    12:00 +20°C° 0.7 mm 6 m/s 745 mmHg 66%
    13:00 +21°C° 0.7 mm 5 m/s 745 mmHg 66%
    14:00 +21°C° 0.7 mm 5 m/s 744 mmHg 65%
    15:00 +21°C° 0.7 mm 5 m/s 744 mmHg 68%
    16:00 +20°C° 0.7 mm 4 m/s 744 mmHg 70%
    17:00 +20°C° 0.7 mm 4 m/s 744 mmHg 73%
    18:00 +18°C° 0.7 mm 4 m/s 745 mmHg 78%
    19:00 +17°C° 0.7 mm 3 m/s 745 mmHg 84%
    20:00 +14°C° 0.7 mm 3 m/s 745 mmHg 89%
    21:00 +14°C° 0.1 mm 2 m/s 745 mmHg 90%
    22:00 +14°C° 0.1 mm 2 m/s 745 mmHg 91%
    23:00 +13°C° 0.1 mm 2 m/s 746 mmHg 92%
    Arată mai mult